contact:dominique.lefevre@mio.osupytheas.fr, maurice.libes@osupytheas.fr, didier.mallarino@osupytheas.fr
Project:EMSO http://www.emso-fr.org/EMSO-France
Depth: 2436.0 m
Title:EMSO Ligure Ouest : Data MII capteur MICROCAT
DateTime_Computer,Latitude,Longitude,Temperature,Conductivity,Pressure,DateTime_Instrument
DateTime_Computer,Latitude,Longitude,degC,S m-1,dbar,DateTime_Instrument
2019-11-28T00:01:18Z,42.805,6.029,13.2968,4.59967,2470.007,2019-11-28T02:01:47Z
2019-11-28T00:04:21Z,42.805,6.029,13.2966,4.59968,2469.984,2019-11-28T02:04:50Z
2019-11-28T00:07:25Z,42.805,6.029,13.2967,4.59968,2469.984,2019-11-28T02:07:53Z
2019-11-28T00:10:28Z,42.805,6.029,13.2969,4.59968,2469.993,2019-11-28T02:10:56Z
2019-11-28T00:13:31Z,42.805,6.029,13.2967,4.59968,2470.017,2019-11-28T02:14:00Z
2019-11-28T00:16:34Z,42.805,6.029,13.2967,4.59967,2470.017,2019-11-28T02:17:03Z
2019-11-28T00:19:37Z,42.805,6.029,13.2971,4.59967,2469.97,2019-11-28T02:20:06Z
2019-11-28T00:22:41Z,42.805,6.029,13.2966,4.59968,2469.984,2019-11-28T02:23:09Z
2019-11-28T00:25:44Z,42.805,6.029,13.2969,4.59968,2469.97,2019-11-28T02:26:12Z
2019-11-28T00:28:47Z,42.805,6.029,13.2967,4.59968,2469.984,2019-11-28T02:29:16Z
2019-11-28T00:31:50Z,42.805,6.029,13.2969,4.59968,2469.96,2019-11-28T02:32:19Z
2019-11-28T00:34:53Z,42.805,6.029,13.2968,4.59970,2469.96,2019-11-28T02:35:22Z
2019-11-28T00:37:56Z,42.805,6.029,13.2967,4.59968,2469.993,2019-11-28T02:38:25Z
2019-11-28T00:41:00Z,42.805,6.029,13.2965,4.59967,2470.007,2019-11-28T02:41:28Z
2019-11-28T00:44:03Z,42.805,6.029,13.2968,4.59968,2470.007,2019-11-28T02:44:32Z
2019-11-28T00:47:06Z,42.805,6.029,13.2971,4.59968,2469.947,2019-11-28T02:47:35Z
2019-11-28T00:50:09Z,42.805,6.029,13.2966,4.59968,2469.984,2019-11-28T02:50:38Z
2019-11-28T00:53:12Z,42.805,6.029,13.2966,4.59966,2469.96,2019-11-28T02:53:41Z
2019-11-28T00:56:16Z,42.805,6.029,13.2970,4.59968,2469.947,2019-11-28T02:56:44Z
2019-11-28T00:59:19Z,42.805,6.029,13.2968,4.59967,2469.97,2019-11-28T02:59:47Z
2019-11-28T01:02:22Z,42.805,6.029,13.2969,4.59968,2469.947,2019-11-28T03:02:51Z
2019-11-28T01:05:25Z,42.805,6.029,13.2968,4.59968,2469.96,2019-11-28T03:05:54Z
2019-11-28T01:08:28Z,42.805,6.029,13.2970,4.59967,2469.947,2019-11-28T03:08:57Z
2019-11-28T01:11:32Z,42.805,6.029,13.2971,4.59968,2469.97,2019-11-28T03:12:00Z
2019-11-28T01:14:35Z,42.805,6.029,13.2969,4.59968,2469.96,2019-11-28T03:15:04Z
2019-11-28T01:17:38Z,42.805,6.029,13.2970,4.59968,2469.984,2019-11-28T03:18:07Z
2019-11-28T01:20:41Z,42.805,6.029,13.2970,4.59968,2469.947,2019-11-28T03:21:10Z
2019-11-28T01:23:44Z,42.805,6.029,13.2970,4.59968,2469.984,2019-11-28T03:24:13Z
2019-11-28T01:26:48Z,42.805,6.029,13.2968,4.59968,2469.96,2019-11-28T03:27:16Z
2019-11-28T01:29:51Z,42.805,6.029,13.2971,4.59969,2469.97,2019-11-28T03:30:20Z
2019-11-28T01:32:54Z,42.805,6.029,13.2969,4.59967,2469.97,2019-11-28T03:33:23Z
2019-11-28T01:35:57Z,42.805,6.029,13.2967,4.59968,2469.947,2019-11-28T03:36:26Z
2019-11-28T01:39:00Z,42.805,6.029,13.2967,4.59969,2469.9,2019-11-28T03:39:29Z
2019-11-28T01:42:04Z,42.805,6.029,13.2967,4.59969,2469.947,2019-11-28T03:42:32Z
2019-11-28T01:45:07Z,42.805,6.029,13.2967,4.59968,2469.947,2019-11-28T03:45:36Z
2019-11-28T01:48:10Z,42.805,6.029,13.2970,4.59968,2469.937,2019-11-28T03:48:39Z
2019-11-28T01:51:13Z,42.805,6.029,13.2970,4.59969,2469.923,2019-11-28T03:51:42Z
2019-11-28T01:54:16Z,42.805,6.029,13.2967,4.59968,2469.914,2019-11-28T03:54:45Z
2019-11-28T01:57:20Z,42.805,6.029,13.2969,4.59968,2469.923,2019-11-28T03:57:48Z
2019-11-28T02:00:23Z,42.805,6.029,13.2968,4.59968,2469.923,2019-11-28T04:00:52Z
2019-11-28T02:03:26Z,42.805,6.029,13.2971,4.59968,2469.96,2019-11-28T04:03:55Z
2019-11-28T02:06:29Z,42.805,6.029,13.2966,4.59970,2469.937,2019-11-28T04:06:58Z
2019-11-28T02:09:33Z,42.805,6.029,13.2971,4.59971,2469.96,2019-11-28T04:10:01Z
2019-11-28T02:12:36Z,42.805,6.029,13.2967,4.59968,2469.923,2019-11-28T04:13:04Z
2019-11-28T02:15:39Z,42.805,6.029,13.2969,4.59968,2469.947,2019-11-28T04:16:08Z
2019-11-28T02:18:42Z,42.805,6.029,13.2969,4.59968,2469.937,2019-11-28T04:19:11Z
2019-11-28T02:21:45Z,42.805,6.029,13.2971,4.59971,2469.937,2019-11-28T04:22:14Z
2019-11-28T02:24:49Z,42.805,6.029,13.2971,4.59970,2469.96,2019-11-28T04:25:17Z
2019-11-28T02:27:52Z,42.805,6.029,13.2969,4.59968,2469.937,2019-11-28T04:28:20Z
2019-11-28T02:30:55Z,42.805,6.029,13.2966,4.59970,2469.96,2019-11-28T04:31:24Z
2019-11-28T02:33:58Z,42.805,6.029,13.2974,4.59970,2469.937,2019-11-28T04:34:27Z
2019-11-28T02:37:01Z,42.805,6.029,13.2968,4.59970,2469.937,2019-11-28T04:37:30Z
2019-11-28T02:40:04Z,42.805,6.029,13.2971,4.59971,2469.9,2019-11-28T04:40:33Z
2019-11-28T02:43:08Z,42.805,6.029,13.2970,4.59970,2469.923,2019-11-28T04:43:36Z
2019-11-28T02:46:11Z,42.805,6.029,13.2971,4.59970,2469.923,2019-11-28T04:46:40Z
2019-11-28T02:49:14Z,42.805,6.029,13.2972,4.59969,2469.923,2019-11-28T04:49:43Z
2019-11-28T02:52:17Z,42.805,6.029,13.2970,4.59970,2469.923,2019-11-28T04:52:46Z
2019-11-28T02:55:21Z,42.805,6.029,13.2969,4.59971,2469.947,2019-11-28T04:55:49Z
2019-11-28T02:58:24Z,42.805,6.029,13.2971,4.59970,2469.937,2019-11-28T04:58:53Z
2019-11-28T03:01:27Z,42.805,6.029,13.2968,4.59971,2469.923,2019-11-28T05:01:56Z
2019-11-28T03:04:30Z,42.805,6.029,13.2971,4.59970,2469.914,2019-11-28T05:04:59Z
2019-11-28T03:07:33Z,42.805,6.029,13.2969,4.59972,2469.947,2019-11-28T05:08:02Z
2019-11-28T03:10:37Z,42.805,6.029,13.2971,4.59971,2469.96,2019-11-28T05:11:05Z
2019-11-28T03:13:40Z,42.805,6.029,13.2971,4.59970,2469.937,2019-11-28T05:14:09Z
2019-11-28T03:16:43Z,42.805,6.029,13.2971,4.59969,2469.97,2019-11-28T05:17:12Z
2019-11-28T03:19:46Z,42.805,6.029,13.2970,4.59968,2469.96,2019-11-28T05:20:15Z
2019-11-28T03:22:49Z,42.805,6.029,13.2967,4.59970,2469.96,2019-11-28T05:23:18Z
2019-11-28T03:25:53Z,42.805,6.029,13.2970,4.59970,2469.923,2019-11-28T05:26:21Z
2019-11-28T03:28:56Z,42.805,6.029,13.2971,4.59971,2469.947,2019-11-28T05:29:24Z
2019-11-28T03:31:59Z,42.805,6.029,13.2968,4.59969,2469.97,2019-11-28T05:32:28Z
2019-11-28T03:35:02Z,42.805,6.029,13.2972,4.59971,2469.984,2019-11-28T05:35:31Z
2019-11-28T03:38:05Z,42.805,6.029,13.2967,4.59971,2469.947,2019-11-28T05:38:34Z
2019-11-28T03:41:09Z,42.805,6.029,13.2966,4.59971,2469.97,2019-11-28T05:41:37Z
2019-11-28T03:44:12Z,42.805,6.029,13.2971,4.59971,2469.984,2019-11-28T05:44:40Z
2019-11-28T03:47:15Z,42.805,6.029,13.2971,4.59970,2469.984,2019-11-28T05:47:44Z
2019-11-28T03:50:18Z,42.805,6.029,13.2968,4.59969,2469.97,2019-11-28T05:50:47Z
2019-11-28T03:53:21Z,42.805,6.029,13.2971,4.59971,2469.947,2019-11-28T05:53:50Z
2019-11-28T03:56:24Z,42.805,6.029,13.2970,4.59971,2469.984,2019-11-28T05:56:53Z
2019-11-28T03:59:28Z,42.805,6.029,13.2971,4.59971,2469.96,2019-11-28T05:59:56Z
2019-11-28T04:02:31Z,42.805,6.029,13.2969,4.59969,2469.993,2019-11-28T06:03:00Z
2019-11-28T04:05:34Z,42.805,6.029,13.2967,4.59970,2469.97,2019-11-28T06:06:03Z
2019-11-28T04:08:37Z,42.805,6.029,13.2971,4.59969,2470.007,2019-11-28T06:09:06Z
2019-11-28T04:11:41Z,42.805,6.029,13.2969,4.59970,2469.993,2019-11-28T06:12:09Z
2019-11-28T04:14:44Z,42.805,6.029,13.2969,4.59971,2470.017,2019-11-28T06:15:12Z
2019-11-28T04:17:47Z,42.805,6.029,13.2971,4.59971,2469.956,2019-11-28T06:18:16Z
2019-11-28T04:20:50Z,42.805,6.029,13.2968,4.59972,2470.007,2019-11-28T06:21:19Z
2019-11-28T04:23:53Z,42.805,6.029,13.2969,4.59971,2469.993,2019-11-28T06:24:22Z
2019-11-28T04:26:57Z,42.805,6.029,13.2969,4.59970,2469.97,2019-11-28T06:27:25Z
2019-11-28T04:30:00Z,42.805,6.029,13.2968,4.59969,2469.993,2019-11-28T06:30:28Z
2019-11-28T04:33:03Z,42.805,6.029,13.2968,4.59971,2470.017,2019-11-28T06:33:32Z
2019-11-28T04:36:06Z,42.805,6.029,13.2970,4.59971,2470.003,2019-11-28T06:36:35Z
2019-11-28T04:39:09Z,42.805,6.029,13.2971,4.59971,2470.03,2019-11-28T06:39:38Z
2019-11-28T04:42:13Z,42.805,6.029,13.2972,4.59972,2470.03,2019-11-28T06:42:41Z
2019-11-28T04:45:16Z,42.805,6.029,13.2968,4.59971,2470.03,2019-11-28T06:45:45Z
2019-11-28T04:48:19Z,42.805,6.029,13.2964,4.59971,2469.993,2019-11-28T06:48:48Z
2019-11-28T04:51:22Z,42.805,6.029,13.2967,4.59972,2470.017,2019-11-28T06:51:51Z
2019-11-28T04:54:26Z,42.805,6.029,13.2972,4.59971,2470.007,2019-11-28T06:54:54Z
2019-11-28T04:57:29Z,42.805,6.029,13.2972,4.59970,2470.03,2019-11-28T06:57:58Z
2019-11-28T05:00:32Z,42.805,6.029,13.2973,4.59973,2470.053,2019-11-28T07:01:01Z
2019-11-28T05:03:35Z,42.805,6.029,13.2971,4.59971,2470.03,2019-11-28T07:04:04Z
2019-11-28T05:06:38Z,42.805,6.029,13.2970,4.59972,2470.04,2019-11-28T07:07:07Z
2019-11-28T05:09:42Z,42.805,6.029,13.2972,4.59973,2470.063,2019-11-28T07:10:10Z
2019-11-28T05:12:45Z,42.805,6.029,13.2968,4.59973,2470.03,2019-11-28T07:13:14Z
2019-11-28T05:15:48Z,42.805,6.029,13.2969,4.59973,2470.077,2019-11-28T07:16:17Z
2019-11-28T05:18:51Z,42.805,6.029,13.2969,4.59971,2470.1,2019-11-28T07:19:20Z
2019-11-28T05:21:54Z,42.805,6.029,13.2971,4.59971,2470.063,2019-11-28T07:22:23Z
2019-11-28T05:24:58Z,42.805,6.029,13.2974,4.59971,2470.087,2019-11-28T07:25:26Z
2019-11-28T05:28:01Z,42.805,6.029,13.2972,4.59972,2470.087,2019-11-28T07:28:30Z
2019-11-28T05:31:05Z,42.805,6.029,13.2971,4.59971,2470.11,2019-11-28T07:31:33Z
2019-11-28T05:34:08Z,42.805,6.029,13.2967,4.59973,2470.087,2019-11-28T07:34:37Z
2019-11-28T05:37:11Z,42.805,6.029,13.2971,4.59972,2470.087,2019-11-28T07:37:40Z
2019-11-28T05:40:14Z,42.805,6.029,13.2970,4.59972,2470.087,2019-11-28T07:40:43Z
2019-11-28T05:43:17Z,42.805,6.029,13.2971,4.59971,2470.124,2019-11-28T07:43:46Z
2019-11-28T05:46:21Z,42.805,6.029,13.2965,4.59973,2470.087,2019-11-28T07:46:49Z
2019-11-28T05:49:24Z,42.805,6.029,13.2970,4.59972,2470.087,2019-11-28T07:49:53Z
2019-11-28T05:52:27Z,42.805,6.029,13.2968,4.59972,2470.124,2019-11-28T07:52:56Z
2019-11-28T05:55:30Z,42.805,6.029,13.2972,4.59972,2470.11,2019-11-28T07:55:59Z
2019-11-28T05:58:33Z,42.805,6.029,13.2972,4.59973,2470.124,2019-11-28T07:59:02Z
2019-11-28T06:01:37Z,42.805,6.029,13.2970,4.59972,2470.124,2019-11-28T08:02:05Z
2019-11-28T06:04:40Z,42.805,6.029,13.2973,4.59971,2470.147,2019-11-28T08:05:09Z
2019-11-28T06:07:43Z,42.805,6.029,13.2975,4.59972,2470.147,2019-11-28T08:08:12Z
2019-11-28T06:10:46Z,42.805,6.029,13.2973,4.59971,2470.156,2019-11-28T08:11:15Z
2019-11-28T06:13:49Z,42.805,6.029,13.2974,4.59973,2470.156,2019-11-28T08:14:18Z
2019-11-28T06:16:53Z,42.805,6.029,13.2969,4.59973,2470.171,2019-11-28T08:17:21Z
2019-11-28T06:19:56Z,42.805,6.029,13.2972,4.59972,2470.147,2019-11-28T08:20:25Z
2019-11-28T06:22:59Z,42.805,6.029,13.2971,4.59973,2470.217,2019-11-28T08:23:28Z
2019-11-28T06:26:02Z,42.805,6.029,13.2973,4.59973,2470.171,2019-11-28T08:26:31Z
2019-11-28T06:29:06Z,42.805,6.029,13.2971,4.59973,2470.171,2019-11-28T08:29:34Z
2019-11-28T06:32:09Z,42.805,6.029,13.2969,4.59972,2470.18,2019-11-28T08:32:38Z
2019-11-28T06:35:12Z,42.805,6.029,13.2973,4.59971,2470.147,2019-11-28T08:35:41Z
2019-11-28T06:38:15Z,42.805,6.029,13.2971,4.59972,2470.133,2019-11-28T08:38:44Z
2019-11-28T06:41:18Z,42.805,6.029,13.2967,4.59972,2470.18,2019-11-28T08:41:47Z
2019-11-28T06:44:22Z,42.805,6.029,13.2976,4.59972,2470.18,2019-11-28T08:44:50Z
2019-11-28T06:47:25Z,42.805,6.029,13.2972,4.59972,2470.171,2019-11-28T08:47:54Z
2019-11-28T06:50:28Z,42.805,6.029,13.2969,4.59972,2470.18,2019-11-28T08:50:57Z
2019-11-28T06:53:31Z,42.805,6.029,13.2973,4.59973,2470.217,2019-11-28T08:54:00Z
2019-11-28T06:56:35Z,42.805,6.029,13.2970,4.59971,2470.18,2019-11-28T08:57:03Z
2019-11-28T06:59:38Z,42.805,6.029,13.2970,4.59972,2470.171,2019-11-28T09:00:07Z
2019-11-28T07:02:41Z,42.805,6.029,13.2968,4.59973,2470.194,2019-11-28T09:03:10Z
2019-11-28T07:05:45Z,42.805,6.029,13.2973,4.59973,2470.18,2019-11-28T09:06:13Z
2019-11-28T07:08:48Z,42.805,6.029,13.2969,4.59972,2470.24,2019-11-28T09:09:17Z
2019-11-28T07:11:51Z,42.805,6.029,13.2971,4.59972,2470.203,2019-11-28T09:12:20Z
2019-11-28T07:14:54Z,42.805,6.029,13.2970,4.59973,2470.194,2019-11-28T09:15:23Z
2019-11-28T07:17:58Z,42.805,6.029,13.2967,4.59972,2470.227,2019-11-28T09:18:26Z
2019-11-28T07:21:01Z,42.805,6.029,13.2974,4.59973,2470.203,2019-11-28T09:21:30Z
2019-11-28T07:24:04Z,42.805,6.029,13.2972,4.59973,2470.227,2019-11-28T09:24:33Z
2019-11-28T07:27:07Z,42.805,6.029,13.2969,4.59971,2470.227,2019-11-28T09:27:36Z
2019-11-28T07:30:11Z,42.805,6.029,13.2969,4.59971,2470.227,2019-11-28T09:30:39Z
2019-11-28T07:33:14Z,42.805,6.029,13.2968,4.59973,2470.227,2019-11-28T09:33:43Z
2019-11-28T07:36:17Z,42.805,6.029,13.2969,4.59973,2470.203,2019-11-28T09:36:46Z
2019-11-28T07:39:20Z,42.805,6.029,13.2973,4.59971,2470.203,2019-11-28T09:39:49Z
2019-11-28T07:42:24Z,42.805,6.029,13.2972,4.59972,2470.227,2019-11-28T09:42:52Z
2019-11-28T07:45:27Z,42.805,6.029,13.2971,4.59972,2470.227,2019-11-28T09:45:55Z
2019-11-28T07:48:30Z,42.805,6.029,13.2970,4.59973,2470.227,2019-11-28T09:48:59Z
2019-11-28T07:51:33Z,42.805,6.029,13.2967,4.59973,2470.25,2019-11-28T09:52:02Z
2019-11-28T07:54:36Z,42.805,6.029,13.2971,4.59971,2470.18,2019-11-28T09:55:05Z
2019-11-28T07:57:40Z,42.805,6.029,13.2970,4.59971,2470.25,2019-11-28T09:58:08Z
2019-11-28T08:00:43Z,42.805,6.029,13.2971,4.59972,2470.227,2019-11-28T10:01:12Z
2019-11-28T08:03:46Z,42.805,6.029,13.2969,4.59972,2470.203,2019-11-28T10:04:15Z
2019-11-28T08:06:49Z,42.805,6.029,13.2974,4.59973,2470.25,2019-11-28T10:07:18Z
2019-11-28T08:09:52Z,42.805,6.029,13.2971,4.59972,2470.227,2019-11-28T10:10:21Z
2019-11-28T08:12:56Z,42.805,6.029,13.2973,4.59973,2470.203,2019-11-28T10:13:24Z
2019-11-28T08:15:59Z,42.805,6.029,13.2973,4.59973,2470.203,2019-11-28T10:16:28Z
2019-11-28T08:19:02Z,42.805,6.029,13.2971,4.59971,2470.203,2019-11-28T10:19:31Z
2019-11-28T08:22:05Z,42.805,6.029,13.2970,4.59972,2470.217,2019-11-28T10:22:34Z
2019-11-28T08:25:09Z,42.805,6.029,13.2971,4.59972,2470.227,2019-11-28T10:25:37Z
2019-11-28T08:28:12Z,42.805,6.029,13.2972,4.59971,2470.217,2019-11-28T10:28:41Z
2019-11-28T08:31:15Z,42.805,6.029,13.2970,4.59972,2470.227,2019-11-28T10:31:44Z
2019-11-28T08:34:18Z,42.805,6.029,13.2969,4.59973,2470.194,2019-11-28T10:34:47Z
2019-11-28T08:37:22Z,42.805,6.029,13.2969,4.59972,2470.217,2019-11-28T10:37:50Z
2019-11-28T08:40:25Z,42.805,6.029,13.2974,4.59973,2470.217,2019-11-28T10:40:54Z
2019-11-28T08:43:28Z,42.805,6.029,13.2968,4.59972,2470.24,2019-11-28T10:43:57Z
2019-11-28T08:46:31Z,42.805,6.029,13.2973,4.59972,2470.203,2019-11-28T10:47:00Z
2019-11-28T08:49:35Z,42.805,6.029,13.2971,4.59973,2470.217,2019-11-28T10:50:03Z
2019-11-28T08:52:38Z,42.805,6.029,13.2976,4.59973,2470.217,2019-11-28T10:53:07Z
2019-11-28T08:55:41Z,42.805,6.029,13.2975,4.59973,2470.203,2019-11-28T10:56:10Z
2019-11-28T08:58:44Z,42.805,6.029,13.2974,4.59972,2470.217,2019-11-28T10:59:13Z
2019-11-28T09:01:48Z,42.805,6.029,13.2973,4.59974,2470.25,2019-11-28T11:02:16Z
2019-11-28T09:04:51Z,42.805,6.029,13.2968,4.59973,2470.189,2019-11-28T11:05:20Z
2019-11-28T09:07:54Z,42.805,6.029,13.2970,4.59972,2470.203,2019-11-28T11:08:23Z
2019-11-28T09:10:57Z,42.805,6.029,13.2969,4.59972,2470.264,2019-11-28T11:11:26Z
2019-11-28T09:14:00Z,42.805,6.029,13.2968,4.59972,2470.264,2019-11-28T11:14:29Z
2019-11-28T09:17:04Z,42.805,6.029,13.2971,4.59971,2470.203,2019-11-28T11:17:32Z
2019-11-28T09:20:07Z,42.805,6.029,13.2973,4.59973,2470.203,2019-11-28T11:20:36Z
2019-11-28T09:23:10Z,42.805,6.029,13.2974,4.59972,2470.217,2019-11-28T11:23:39Z
2019-11-28T09:26:13Z,42.805,6.029,13.2969,4.59971,2470.203,2019-11-28T11:26:42Z
2019-11-28T09:29:17Z,42.805,6.029,13.2970,4.59972,2470.227,2019-11-28T11:29:45Z
2019-11-28T09:32:20Z,42.805,6.029,13.2974,4.59973,2470.227,2019-11-28T11:32:49Z
2019-11-28T09:35:23Z,42.805,6.029,13.2973,4.59973,2470.194,2019-11-28T11:35:52Z
2019-11-28T12:18:08Z,42.805,6.029,13.2975,4.59972,2470.087,2019-11-28T14:18:37Z
2019-11-28T12:21:11Z,42.805,6.029,13.2970,4.59973,2470.087,2019-11-28T14:21:40Z
2019-11-28T12:24:14Z,42.805,6.029,13.2970,4.59973,2470.087,2019-11-28T14:24:43Z
2019-11-28T12:27:17Z,42.805,6.029,13.2973,4.59973,2470.11,2019-11-28T14:27:46Z
2019-11-28T12:30:21Z,42.805,6.029,13.2971,4.59974,2470.124,2019-11-28T14:30:49Z
2019-11-28T12:33:24Z,42.805,6.029,13.2971,4.59974,2470.087,2019-11-28T14:33:53Z
2019-11-28T12:36:27Z,42.805,6.029,13.2975,4.59980,2470.063,2019-11-28T14:36:56Z
2019-11-28T12:39:30Z,42.805,6.029,13.2971,4.59975,2470.087,2019-11-28T14:39:59Z
2019-11-28T12:42:33Z,42.805,6.029,13.2972,4.59974,2470.04,2019-11-28T14:43:02Z
2019-11-28T12:45:37Z,42.805,6.029,13.2971,4.59978,2470.04,2019-11-28T14:46:05Z
2019-11-28T12:48:40Z,42.805,6.029,13.2970,4.59978,2470.087,2019-11-28T14:49:09Z
2019-11-28T12:51:43Z,42.805,6.029,13.2971,4.59975,2470.063,2019-11-28T14:52:12Z
2019-11-28T12:54:46Z,42.805,6.029,13.2974,4.59977,2470.053,2019-11-28T14:55:15Z
2019-11-28T12:57:50Z,42.805,6.029,13.2971,4.59976,2470.077,2019-11-28T14:58:18Z
2019-11-28T13:00:53Z,42.805,6.029,13.2972,4.59975,2470.063,2019-11-28T15:01:22Z
2019-11-28T13:03:56Z,42.805,6.029,13.2970,4.59973,2470.077,2019-11-28T15:04:25Z
2019-11-28T13:06:59Z,42.805,6.029,13.2970,4.59976,2470.03,2019-11-28T15:07:28Z
2019-11-28T13:10:02Z,42.805,6.029,13.2970,4.59975,2470.087,2019-11-28T15:10:31Z
2019-11-28T13:13:06Z,42.805,6.029,13.2972,4.59974,2470.03,2019-11-28T15:13:34Z
2019-11-28T13:16:09Z,42.805,6.029,13.2970,4.59973,2470.04,2019-11-28T15:16:37Z
2019-11-28T13:19:12Z,42.805,6.029,13.2974,4.59973,2470.077,2019-11-28T15:19:41Z
2019-11-28T13:22:15Z,42.805,6.029,13.2970,4.59975,2470.053,2019-11-28T15:22:44Z
2019-11-28T13:25:18Z,42.805,6.029,13.2971,4.59973,2470.04,2019-11-28T15:25:47Z
2019-11-28T13:28:22Z,42.805,6.029,13.2973,4.59976,2470.017,2019-11-28T15:28:50Z
2019-11-28T13:31:25Z,42.805,6.029,13.2974,4.59974,2470.053,2019-11-28T15:31:54Z
2019-11-28T13:34:28Z,42.805,6.029,13.2973,4.59975,2470.04,2019-11-28T15:34:57Z
2019-11-28T13:37:31Z,42.805,6.029,13.2971,4.59978,2470.017,2019-11-28T15:38:00Z
2019-11-28T13:40:34Z,42.805,6.029,13.2973,4.59976,2470.017,2019-11-28T15:41:03Z
2019-11-28T13:43:38Z,42.805,6.029,13.2973,4.59978,2470.03,2019-11-28T15:44:06Z
2019-11-28T13:46:41Z,42.805,6.029,13.2970,4.59978,2470.04,2019-11-28T15:47:10Z
2019-11-28T13:49:44Z,42.805,6.029,13.2972,4.59978,2470.04,2019-11-28T15:50:13Z
2019-11-28T13:52:47Z,42.805,6.029,13.2974,4.59978,2470.03,2019-11-28T15:53:16Z
2019-11-28T13:55:50Z,42.805,6.029,13.2972,4.59978,2469.993,2019-11-28T15:56:19Z
2019-11-28T13:58:54Z,42.805,6.029,13.2971,4.59976,2470.03,2019-11-28T15:59:22Z
2019-11-28T14:01:57Z,42.805,6.029,13.2975,4.59975,2470.007,2019-11-28T16:02:25Z
2019-11-28T14:05:00Z,42.805,6.029,13.2973,4.59977,2470.017,2019-11-28T16:05:29Z
2019-11-28T14:08:03Z,42.805,6.029,13.2972,4.59976,2470.03,2019-11-28T16:08:32Z
2019-11-28T14:11:06Z,42.805,6.029,13.2972,4.59973,2470.053,2019-11-28T16:11:35Z
2019-11-28T14:14:10Z,42.805,6.029,13.2974,4.59979,2469.993,2019-11-28T16:14:38Z
2019-11-28T14:17:13Z,42.805,6.029,13.2968,4.59978,2470.03,2019-11-28T16:17:42Z
2019-11-28T14:20:16Z,42.805,6.029,13.2976,4.59977,2469.993,2019-11-28T16:20:45Z
2019-11-28T14:23:19Z,42.805,6.029,13.2973,4.59973,2470.03,2019-11-28T16:23:48Z
2019-11-28T14:26:22Z,42.805,6.029,13.2971,4.59974,2470.017,2019-11-28T16:26:51Z
2019-11-28T14:29:26Z,42.805,6.029,13.2973,4.59974,2469.97,2019-11-28T16:29:54Z
2019-11-28T14:32:29Z,42.805,6.029,13.2974,4.59975,2469.984,2019-11-28T16:32:58Z
2019-11-28T14:35:32Z,42.805,6.029,13.2971,4.59973,2470.007,2019-11-28T16:36:01Z
2019-11-28T14:38:35Z,42.805,6.029,13.2971,4.59976,2470.007,2019-11-28T16:39:04Z
2019-11-28T14:41:38Z,42.805,6.029,13.2971,4.59973,2469.993,2019-11-28T16:42:07Z
2019-11-28T14:44:42Z,42.805,6.029,13.2968,4.59975,2470.03,2019-11-28T16:45:10Z
2019-11-28T14:47:45Z,42.805,6.029,13.2971,4.59979,2470.007,2019-11-28T16:48:14Z
2019-11-28T14:50:48Z,42.805,6.029,13.2973,4.59973,2469.993,2019-11-28T16:51:17Z
2019-11-28T14:53:51Z,42.805,6.029,13.2973,4.59978,2469.984,2019-11-28T16:54:20Z
2019-11-28T14:56:54Z,42.805,6.029,13.2976,4.59974,2470.017,2019-11-28T16:57:23Z
2019-11-28T14:59:58Z,42.805,6.029,13.2971,4.59974,2469.993,2019-11-28T17:00:26Z
2019-11-28T15:03:01Z,42.805,6.029,13.2974,4.59975,2470.017,2019-11-28T17:03:30Z
2019-11-28T15:06:04Z,42.805,6.029,13.2971,4.59976,2470.007,2019-11-28T17:06:33Z
2019-11-28T15:09:07Z,42.805,6.029,13.2971,4.59977,2470.03,2019-11-28T17:09:36Z
2019-11-28T15:12:10Z,42.805,6.029,13.2971,4.59981,2470.007,2019-11-28T17:12:39Z
2019-11-28T15:15:14Z,42.805,6.029,13.2971,4.59978,2469.993,2019-11-28T17:15:42Z
2019-11-28T15:18:17Z,42.805,6.029,13.2976,4.59976,2470.007,2019-11-28T17:18:46Z
2019-11-28T15:21:20Z,42.805,6.029,13.2973,4.59975,2470.03,2019-11-28T17:21:49Z
2019-11-28T15:24:23Z,42.805,6.029,13.2971,4.59978,2469.97,2019-11-28T17:24:52Z
2019-11-28T15:27:27Z,42.805,6.029,13.2971,4.59974,2469.97,2019-11-28T17:27:55Z
2019-11-28T15:30:30Z,42.805,6.029,13.2972,4.59975,2469.993,2019-11-28T17:30:59Z
2019-11-28T15:33:33Z,42.805,6.029,13.2971,4.59975,2469.979,2019-11-28T17:34:02Z
2019-11-28T15:36:36Z,42.805,6.029,13.2973,4.59979,2469.97,2019-11-28T17:37:05Z
2019-11-28T15:39:39Z,42.805,6.029,13.2972,4.59977,2469.993,2019-11-28T17:40:08Z
2019-11-28T15:42:43Z,42.805,6.029,13.2970,4.59981,2469.984,2019-11-28T17:43:11Z
2019-11-28T15:45:46Z,42.805,6.029,13.2970,4.59975,2469.984,2019-11-28T17:46:14Z
2019-11-28T15:48:49Z,42.805,6.029,13.2972,4.59976,2469.984,2019-11-28T17:49:18Z
2019-11-28T15:51:52Z,42.805,6.029,13.2970,4.59976,2469.993,2019-11-28T17:52:21Z
2019-11-28T15:54:55Z,42.805,6.029,13.2974,4.59979,2469.993,2019-11-28T17:55:24Z
2019-11-28T15:57:58Z,42.805,6.029,13.2972,4.59976,2469.993,2019-11-28T17:58:27Z
2019-11-28T16:01:02Z,42.805,6.029,13.2976,4.59976,2469.993,2019-11-28T18:01:30Z
2019-11-28T16:04:05Z,42.805,6.029,13.2971,4.59975,2470.007,2019-11-28T18:04:34Z
2019-11-28T16:07:08Z,42.805,6.029,13.2974,4.59975,2470.007,2019-11-28T18:07:37Z
2019-11-28T16:10:11Z,42.805,6.029,13.2972,4.59976,2469.993,2019-11-28T18:10:40Z
2019-11-28T16:13:14Z,42.805,6.029,13.2974,4.59976,2469.993,2019-11-28T18:13:43Z
2019-11-28T16:16:18Z,42.805,6.029,13.2973,4.59979,2469.993,2019-11-28T18:16:46Z
2019-11-28T16:19:21Z,42.805,6.029,13.2975,4.59978,2469.993,2019-11-28T18:19:50Z
2019-11-28T16:22:24Z,42.805,6.029,13.2974,4.59978,2470.04,2019-11-28T18:22:53Z
2019-11-28T16:25:27Z,42.805,6.029,13.2970,4.59980,2470.007,2019-11-28T18:25:56Z
2019-11-28T16:28:30Z,42.805,6.029,13.2978,4.59976,2470.007,2019-11-28T18:28:59Z
2019-11-28T16:31:34Z,42.805,6.029,13.2971,4.59978,2470.017,2019-11-28T18:32:03Z
2019-11-28T16:34:37Z,42.805,6.029,13.2973,4.59976,2470.03,2019-11-28T18:35:06Z
2019-11-28T16:37:40Z,42.805,6.029,13.2974,4.59979,2469.993,2019-11-28T18:38:09Z
2019-11-28T16:40:43Z,42.805,6.029,13.2970,4.59978,2470.017,2019-11-28T18:41:12Z
2019-11-28T16:43:47Z,42.805,6.029,13.2975,4.59978,2470.03,2019-11-28T18:44:15Z
2019-11-28T16:46:50Z,42.805,6.029,13.2976,4.59974,2470.03,2019-11-28T18:47:19Z
2019-11-28T16:49:53Z,42.805,6.029,13.2975,4.59977,2469.993,2019-11-28T18:50:22Z
2019-11-28T16:52:56Z,42.805,6.029,13.2971,4.59980,2470.017,2019-11-28T18:53:25Z
2019-11-28T16:56:00Z,42.805,6.029,13.2969,4.59978,2470.03,2019-11-28T18:56:29Z
2019-11-28T16:59:03Z,42.805,6.029,13.2972,4.59976,2470.007,2019-11-28T18:59:32Z
2019-11-28T17:02:06Z,42.805,6.029,13.2968,4.59976,2470.017,2019-11-28T19:02:35Z
2019-11-28T17:05:10Z,42.805,6.029,13.2970,4.59976,2470.077,2019-11-28T19:05:38Z
2019-11-28T17:08:13Z,42.805,6.029,13.2971,4.59976,2470.017,2019-11-28T19:08:42Z
2019-11-28T17:11:16Z,42.805,6.029,13.2976,4.59976,2469.993,2019-11-28T19:11:45Z
2019-11-28T17:14:19Z,42.805,6.029,13.2971,4.59977,2470.017,2019-11-28T19:14:48Z
2019-11-28T17:17:22Z,42.805,6.029,13.2975,4.59978,2470.04,2019-11-28T19:17:51Z
2019-11-28T17:20:26Z,42.805,6.029,13.2971,4.59976,2470.04,2019-11-28T19:20:54Z
2019-11-28T17:23:29Z,42.805,6.029,13.2973,4.59976,2470.04,2019-11-28T19:23:58Z
2019-11-28T17:26:32Z,42.805,6.029,13.2974,4.59978,2470.053,2019-11-28T19:27:01Z
2019-11-28T17:29:35Z,42.805,6.029,13.2971,4.59976,2470.053,2019-11-28T19:30:04Z
2019-11-28T17:32:39Z,42.805,6.029,13.2974,4.59976,2470.1,2019-11-28T19:33:07Z
2019-11-28T17:35:42Z,42.805,6.029,13.2974,4.59982,2470.053,2019-11-28T19:36:11Z
2019-11-28T17:38:45Z,42.805,6.029,13.2972,4.59976,2470.053,2019-11-28T19:39:14Z
2019-11-28T17:41:48Z,42.805,6.029,13.2971,4.59978,2470.077,2019-11-28T19:42:17Z